Regional Weather Roundup
Issued by NWS

Home | Current Version | Previous Version | Graphics & Text | Print | Product List | Glossary On
Versions: 1 2 3 4 5 6 7 8 9 10 11 12 13 14 15 16 17 18 19 20 21 22 23 24 25 26 27 28 29 30 31 32 33 34 35 36 37 38 39 40 41 42 43 44 45 46 47 48 49 50
000
ASUS45 KCYS 130210
RWRWY

WYOMING REGIONAL WEATHER ROUNDUP
NATIONAL WEATHER SERVICE CHEYENNE WY
800 PM MDT SAT JUL 12 2014

NOTE:  "FAIR" INDICATES FEW OR NO CLOUDS BELOW 12,000 FEET
WITH NO SIGNIFICANT WEATHER AND/OR OBSTRUCTIONS TO VISIBILITY.

WYZ001-130300-
YELLOWSTONE NATIONAL PARK

CITY           SKY/WX    TMP DP  RH WIND       PRES   REMARKS
LK YELLOWSTONE   N/A     56  54  93 CALM      30.53R
W YELLOWSTONE  NOT AVBL

$$
WYZ002>013-054>058-071-098>099-130300-
NORTHERN WYOMING

CITY           SKY/WX    TMP DP  RH WIND       PRES   REMARKS
JACKSON        PTCLDY    66  50  55 MISG      30.40
CODY           CLOUDY    72  55  56 SW7       30.31S
GREYBULL       CLOUDY    85  44  23 N13       30.19S
WORLAND        CLOUDY    76  56  49 SW12      30.22S
SHERIDAN       MOCLDY    76  56  49 W7        30.23R
BUFFALO        MOCLDY    73  53  49 N7        30.30S
GILLETTE       PTCLDY    78  50  37 N10       30.25R
HULETT         FAIR      73  52  46 MISG      30.25
NEWCASTLE      FAIR      77  50  38 N8        30.24

$$
WYZ014>020-022>026-101>103-130300-
CENTRAL WYOMING

CITY           SKY/WX    TMP DP  RH WIND       PRES   REMARKS
BIG PINEY      CLOUDY    72  45  37 E7        30.40R
PINEDALE       CLOUDY    64  46  52 N13G18    30.41R
DUBOIS         CLOUDY    59  50  72 CALM      30.49R
LANDER         CLOUDY    70  52  52 W9        30.34S
RIVERTON       CLOUDY    66  56  70 NW14      30.33S
CASPER         MOCLDY    74  51  44 N13       30.31R
DOUGLAS        PTCLDY    78  52  40 N12       30.28R

$$
WYZ021-027>030-104>119-130300-
SOUTHERN WYOMING

CITY           SKY/WX    TMP DP  RH WIND       PRES   REMARKS
EVANSTON       PTCLDY    79  48  33 NE7       30.36R
KEMMERER       CLEAR    N/A N/A N/A NW9       30.38S
ROCK SPRINGS   CLOUDY    77  42  28 NE23G29   30.33R
DIXON          FAIR      80  43  26 NE10G17   30.32S
RAWLINS        MOCLDY    77  42  28 NE18G25   30.35R
SARATOGA       FAIR      75  45  33 E8        30.37R
LARAMIE        CLEAR     67  50  54 E8        30.41R
CHEYENNE       PTCLDY    72  52  49 E9        30.34R
TORRINGTON     MOCLDY    76  62  62 S5        30.19R THUNDER

$$


USA.gov is the U.S. government's official web portal to all federal, state and local government web resources and services.